Location: Ward Pound Ridge Reservation
(41.2500°N, 73.6000°W)
Time: 06:18:27
(UTC-04:00)

OTV 5 (USA 277) - Pass Details

Date: 08 October 2017
Orbit: 404 x 417 km, 43.0° (Epoch: 07 September)

Event Time Altitude Azimuth Distance (km) Brightness Sun altitude
Rises 19:48:20 0° 219° (SW) 2,343 ? -16.6°
Reaches altitude 10° 19:50:41 10° 205° (SSW) 1,483 ? -17.0°
Enters shadow 19:52:56 23° 165° (SSE) 925 ? -17.5°
